Tracking 28790 objects as of 18-Apr-2024
HD Live streaming from Space Station
objects crossing your sky now

ARIANE 5 DEB (SYLDA)

Track ARIANE 5 DEB (SYLDA) now!


NORAD ID: 26109
Int'l Code: 2000-016C
Perigee: 611.0 km
Apogee: 35,456.5 km
Inclination: 6.5 °
Period: 632.4 minutes
Semi major axis: 24404 km
RCS: 16.5211 m2 (large)
Launch date: March 21, 2000
Source: France (FR)
Launch site: FRENCH GUIANA (FRGUI)

Note: This is SATELLITE DEBRIS
Your satellite tracking list
Your tracking list is empty




NASA's NSSDC Master Catalog

Two Line Element Set (TLE):
1 26109U 00016C   24109.32845537 -.00000001  00000-0  31679-2 0  9998
2 26109   6.4916 219.0101 7139091 327.3207   4.0306  2.27715377199715
Source of the keplerian elements: AFSPC